STARLINK-33982, 63707

Orbit data source: Space-Track

STARLINK-33982, 63707 is a payload satellite owned by SpaceX/Seattle (US) in LEO that was launched on Mon, 28 Apr 2025 UTC via an FALCON 9 launch vehicle from the Air Force Western Test Range (AFWTR). Payload-class satellites include a variety of spacecraft equipped with specific instruments for various scientific and technological missions. These include communications satellites like Starlink; space stations such as the ISS; scientific satellites like the Hubble; Earth observation satellites from companies like Planet Labs, Umbra, and HawkEye 360; GPS; miniature CubeSats for education and research; and military/defense satellites.

Loading next visibility...
Identifier
63707, 2025-087L
Orbit
LEO
Country
Flag of USUS
Related business
Manufacturer
SpaceX/Seattle
Mission
Operational Commercial Communications
Bus & Motor
STARLINK V2MO, Unknown motor
Mass
575 kg wet, ~530 kg dry
Launch date (UTC)
2025-04-28 (8 months ago)
Launch vehicle
FALCON 9
Launch site
Air Force Western Test Range (AFWTR)
Object type
Payload
Rocket body
Debris
Shape & HBR
Box + 2 Pan, 17.7 m
Radar Cross Section
36.964 m², Large (>1 m²)

Expand to show TLE details & history
Last TLE update: 7 hours ago

TLE from 7 hours ago
0 STARLINK-33982
1 63707U 25087L   25349.90917813  .00014592  00000-0  50343-3 0  9995
2 63707  53.1618 248.6222 0001977  59.6181 300.5015 15.30226425 36372
Epoch: 2025-12-15T21:49Z
TLE epoch observation values (Epoch: 2025-12-15T21:49:12.990Z)
Latitude
-0.00002°
Longitude
-163.48292°
Altitude
475.349 km
Speed
7.63 km/s
True Right ascension
16h 34m 29s
True Declination
0° 00' 00"
Sunlit
Object was in daylight at epoch
Visualization orbit readout
Latitude
Unknown
Longitude
Unknown
Altitude
Unknown
Speed
Unknown
Apparent Right ascension
Unknown
Apparent Declination
Unknown
Sunlit
N/A
Visualization observer readout
Local Sidereal Time
03:10:43
Azimuth
Unknown
Elevation
Unknown
Doppler factor
Unknown
Orbital elements
Apogee altitude
476.747 km
Perigee altitude
474.037 km
Semi-major axis
6,853.529 km
Eccentricity
0.0002
Inclination
53.1618°
RAAN
248.6222°
Arg. of periapsis
59.6181°
True anomaly
300.48198°
Mean anomaly
300.5015°
Eccentric anomaly
300.49174°
Mean motion
3.82536 °/min
Orbital period
94.11 mins
BSTAR
0.00050343
Loading maneuver chart data...
Computing Atmospheric mass density...
Loading historical data...
Loading historical data...
Loading historical data...
Loading historical data...
Loading historical data...
Loading historical data...
Loading historical data...

Documentation

Showing up to 5 results
|